Lobo

Go HERE for most recent data if this page is not up to date.

Jump to table bottom
Date/Time Temp deg F RH % 24 Hr Snow (in) Snow Depth (in) H2O (in)
04/17 00:00 22.0 99 43.0 46.0 0.07
04/16 23:00 23.4 100 8.3 45.5 0.02
04/16 22:00 25.2 91 7.9 45.3 0.06
04/16 21:00 27.5 100 7.4 126.5 0.12
04/16 20:00 28.2 100 6.1 43.7 0.21
04/16 19:00 29.0 100 3.6 40.6 0.14
04/16 18:00 29.6 100 2.0 39.4 0.17
04/16 17:00 30.0 100 0.4 37.4 0.02
04/16 16:00 30.5 100 0.4 37.0 0.05
04/16 15:00 33.7 81 0.0 36.6 0.00
04/16 14:00 35.3 50 0.0 36.6 0.00
04/16 13:00 33.9 48 0.0 36.8 0.00
04/16 12:00 34.2 46 0.0 36.9 0.00
04/16 11:00 33.1 51 0.0 36.9 0.00
04/16 10:00 30.3 54 0.0 37.0 0.00
04/16 09:00 26.8 71 0.0 37.1 0.00
04/16 08:00 26.0 78 0.0 37.1 0.00
04/16 07:00 23.8 79 0.0 37.2 0.00
04/16 06:00 23.8 78 0.0 37.1 0.00
04/16 05:00 25.6 82 0.0 37.1 0.00
04/16 04:00 27.0 70 0.0 37.1 0.00
04/16 03:00 28.3 64 0.0 37.2 0.00
04/16 02:00 29.7 68 0.0 37.2 0.00
04/16 01:00 30.9 67 0.0 37.1 0.00
04/16 00:00 32.0 70 0.1 37.2 0.00
.